Overview Statistics Trail Chart Weather Telemetry Raw packets
 

This is the latest recevied weather packets stored in our database for station/object N7WSS. If no packets are shown the sender has not sent any weather packets the latest 10 day(s).

<< 10 11 12 13 14 15 16 >>
Time Temp. Humidity Pressure Rain* Wind** Luminosity Snow
1788560225 35.56° C 34% 1011.9 hPa 0 mm - - -
1788559920 35.56° C 33% 1011.9 hPa 0 mm - - -
1788559615 35.56° C 33% 1012.1 hPa 0 mm - - -
1788559311 35.56° C 31% 1012.1 hPa 0 mm - - -
1788559010 35° C 32% 1012.1 hPa 0 mm - - -
1788558707 35.56° C 33% 1012.1 hPa 0 mm - - -
1788558407 35.56° C 34% 1012.4 hPa 0 mm - - -
1788558103 35.56° C 35% 1012.4 hPa 0 mm - - -
1788557801 36.11° C 33% 1012.4 hPa 0 mm - - -
1788557498 35° C 33% 1012.6 hPa 0 mm - - -
1788557198 35° C 35% 1012.7 hPa 0 mm - - -
1788556893 34.44° C 35% 1012.6 hPa 0 mm - - -
1788556592 35° C 35% 1012.8 hPa 0 mm - - -
1788556288 35° C 35% 1012.8 hPa 0 mm - - -
1788555987 36.11° C 35% 1012.8 hPa 0 mm - - -
1788555683 35° C 36% 1012.6 hPa 0 mm - - -
1788555379 33.89° C 36% 1012.7 hPa 0 mm - - -
1788555075 35° C 36% 1012.9 hPa 0 mm - - -
1788554770 35° C 37% 1012.9 hPa 0 mm - - -
1788554467 35° C 37% 1012.9 hPa 0 mm - - -
1788554162 35° C 37% 1013 hPa 0 mm - - -
1788553858 35° C 38% 1013.2 hPa 0 mm - - -
1788553554 33.89° C 39% 1013.5 hPa 0 mm - - -
1788553251 33.33° C 40% 1013.3 hPa 0 mm - - -
1788552950 32.22° C 41% 1013.5 hPa 0 mm - - -

* Rain latest hour (hover to see other rain measurements)
** Current wind speed in m/s (hover to see current wind gust speed)